TimeEST,TemperatureF,Dew PointF,Humidity,Sea Level PressureIn,VisibilityMPH,Wind Direction,Wind SpeedMPH,Gust SpeedMPH,PrecipitationIn,Events,Conditions,WindDirDegrees,DateUTC
12:20 AM,12.2,8.6,85,29.89,0.5,North,13.8,21.9,0.02,Fog-Snow,Snow,10,2013-02-09 05:20:00
12:54 AM,12.9,10.0,88,29.88,0.5,North,15.0,20.7,0.05,Fog-Snow,Snow,10,2013-02-09 05:54:00
1:54 AM,14.0,10.0,84,29.85,0.5,North,16.1,26.5,0.05,Fog-Snow,Snow,360,2013-02-09 06:54:00
2:17 AM,14.0,10.4,86,29.79,0.5,North,11.5,28.8,0.02,Fog-Snow,Snow,10,2013-02-09 07:17:00
2:24 AM,14.0,10.4,86,29.80,0.2,NNE,16.1,27.6,0.04,Fog-Snow,Heavy Snow,20,2013-02-09 07:24:00
2:42 AM,14.0,10.4,86,29.81,0.5,North,11.5,35.7,0.06,Fog-Snow,Snow,10,2013-02-09 07:42:00
2:54 AM,14.0,10.9,88,29.84,0.5,NNE,13.8,19.6,0.07,Fog-Snow,Snow,20,2013-02-09 07:54:00
3:04 AM,14.0,10.4,86,29.80,0.5,NNE,16.1,69.0,0.01,Fog-Snow,Snow,20,2013-02-09 08:04:00
3:40 AM,15.8,12.2,86,29.79,0.5,NNE,13.8,161.1,0.04,Fog-Snow,Snow,30,2013-02-09 08:40:00
3:54 AM,16.0,12.0,84,29.81,0.5,North,10.4,31.1,0.06,Fog-Snow,Snow,10,2013-02-09 08:54:00
4:33 AM,15.8,12.2,86,29.78,0.5,North,8.1,-,0.06,Fog-Snow,Snow,10,2013-02-09 09:33:00
4:54 AM,16.0,12.0,84,29.81,0.5,North,18.4,25.3,0.09,Fog-Snow,Snow,360,2013-02-09 09:54:00
5:03 AM,15.8,12.2,86,29.78,0.5,North,12.7,27.6,0.00,Fog-Snow,Snow,10,2013-02-09 10:03:00
5:31 AM,15.8,12.2,86,29.77,1.0,NNW,13.8,26.5,0.01,Snow,Light Snow,340,2013-02-09 10:31:00
5:47 AM,15.8,10.4,79,29.77,1.2,NNW,9.2,18.4,0.01,Snow,Light Snow,330,2013-02-09 10:47:00
5:54 AM,15.1,10.9,84,29.80,1.2,NNW,12.7,21.9,0.01,Snow,Light Snow,340,2013-02-09 10:54:00
6:33 AM,15.8,10.4,79,29.77,1.5,NNW,6.9,17.3,0.01,Snow,Light Snow,330,2013-02-09 11:33:00
6:43 AM,15.8,10.4,79,29.77,1.2,North,8.1,-,0.02,Snow,Light Snow,350,2013-02-09 11:43:00
6:54 AM,15.1,10.9,84,29.80,1.0,North,9.2,16.1,0.02,Snow,Light Snow,350,2013-02-09 11:54:00
7:46 AM,15.8,10.4,79,29.78,1.5,NNW,11.5,20.7,0.01,Snow,Light Snow,340,2013-02-09 12:46:00
7:54 AM,15.1,10.0,80,29.82,1.8,North,15.0,23.0,0.01,Snow,Light Snow,360,2013-02-09 12:54:00
8:22 AM,15.8,10.4,79,29.78,1.2,NNW,17.3,29.9,0.01,Snow,Light Snow,340,2013-02-09 13:22:00
8:36 AM,15.8,10.4,79,29.78,1.5,North,13.8,25.3,0.01,Snow,Light Snow,350,2013-02-09 13:36:00
8:50 AM,15.8,10.4,79,29.79,1.2,North,15.0,24.2,0.01,Snow,Light Snow,360,2013-02-09 13:50:00
8:54 AM,15.1,10.0,80,29.82,1.0,NNW,15.0,24.2,0.01,Snow,Light Snow,340,2013-02-09 13:54:00
9:42 AM,15.8,10.4,79,29.80,0.8,NNW,13.8,25.3,0.00,Snow,Light Snow,340,2013-02-09 14:42:00
9:48 AM,15.8,10.4,79,29.80,1.0,NNW,17.3,24.2,0.00,Snow,Light Snow,340,2013-02-09 14:48:00
9:54 AM,16.0,10.9,81,29.84,1.0,NNW,10.4,24.2,0.00,Snow,Light Snow,340,2013-02-09 14:54:00
10:17 AM,15.8,10.4,79,29.82,1.5,North,17.3,27.6,0.00,Snow,Light Snow,350,2013-02-09 15:17:00
10:54 AM,16.0,9.0,74,29.86,1.8,North,20.7,28.8,0.01,Snow,Light Snow,350,2013-02-09 15:54:00
11:25 AM,17.6,8.6,68,29.84,2.0,North,18.4,35.7,0.00,Snow,Light Snow,350,2013-02-09 16:25:00
11:41 AM,17.6,8.6,68,29.84,3.0,North,21.9,31.1,0.00,Snow,Light Snow,350,2013-02-09 16:41:00
11:54 AM,17.1,8.1,68,29.87,3.0,North,19.6,29.9,0.00,Snow,Light Snow,350,2013-02-09 16:54:00
12:54 PM,17.1,6.1,62,29.88,10.0,North,18.4,26.5,0.00,,Overcast,350,2013-02-09 17:54:00
1:54 PM,18.0,5.0,57,29.92,10.0,NNW,16.1,26.5,N/A,,Overcast,340,2013-02-09 18:54:00
2:54 PM,18.0,5.0,57,29.96,10.0,North,15.0,27.6,0.00,,Overcast,350,2013-02-09 19:54:00
3:54 PM,17.1,6.1,62,29.99,10.0,NNW,17.3,27.6,0.00,,Overcast,340,2013-02-09 20:54:00
4:54 PM,17.1,3.9,56,30.03,10.0,NNW,15.0,20.7,0.00,,Overcast,340,2013-02-09 21:54:00
5:54 PM,18.0,3.0,52,30.06,10.0,NNW,15.0,26.5,N/A,,Partly Cloudy,340,2013-02-09 22:54:00
6:54 PM,17.1,3.0,54,30.09,10.0,NNW,9.2,26.5,N/A,,Clear,330,2013-02-09 23:54:00
7:54 PM,17.1,3.0,54,30.12,10.0,NNW,13.8,29.9,N/A,,Partly Cloudy,340,2013-02-10 00:54:00
8:54 PM,17.1,1.9,52,30.14,10.0,North,19.6,27.6,N/A,,Clear,350,2013-02-10 01:54:00
9:54 PM,17.1,1.0,50,30.15,10.0,North,16.1,27.6,N/A,,Clear,350,2013-02-10 02:54:00
10:54 PM,17.1,1.0,50,30.14,10.0,North,12.7,26.5,N/A,,Clear,350,2013-02-10 03:54:00
11:54 PM,15.1,1.0,54,30.16,10.0,WNW,4.6,-,N/A,,Clear,290,2013-02-10 04:54:00